Tracking 17856 objects as of 28-September-2016
HD Live streaming from Space Station
objects crossing your sky now

AMC-4 (GE-4)

Track AMC-4 (GE-4) now!
AMC-4 (GE-4) is classified as:


NORAD ID: 25954
Int'l Code: 1999-060A
Perigee: 35,792.8 km
Apogee: 35,798.1 km
Inclination: 0.0 °
Period: 1,436.2 minutes
Semi major axis: 42166 km
RCS: 18.9697 m2 (large)
Launch date: November 13, 1999
Source: SOCIETE EUROPEENNE DES SATELLITES (SES)
Launch site: FRENCH GUIANA (FRGUI)

Broadcasting, cable, internet; CONUS, Canada, Mexico, Caribbean, Central America, South America; 28 Ku- and 24 C-band
Your satellite tracking list
Your tracking list is empty





NASA's NSSDC Master Catalog

Two Line Element Set (TLE):
1 25954U 99060A   16271.54825779  .00000000  00000-0  10000-3 0  9997
2 25954   0.0348 110.0021 0000634  86.6269 300.4830  1.00265622 61905
Source of the keplerian elements: AFSPC

N2YO: 695